Regional Weather Roundup
Issued by NWS

Home | Current Version | Previous Version | Text Only | Print | Product List | Glossary On
Versions: 1 2 3 4 5 6 7 8 9 10 11 12 13 14 15 16 17 18 19 20 21 22 23 24 25 26 27 28 29 30 31 32 33 34 35 36 37 38 39 40 41 42 43 44 45 46 47 48 49 50
274
ASUS44 KLIX 230510
RWRLA
LOUISIANA WEATHER ROUNDUP
NATIONAL WEATHER SERVICE NEW ORLEANS LA
1200 AM CDT WED APR 23 2014

NOTE: "FAIR" INDICATES FEW OR NO CLOUDS BELOW 12,000 FEET WITH NO
      SIGNIFICANT WEATHER AND/OR OBSTRUCTIONS TO VISIBILITY.
      SKY/WX - SKY CONDITION AND SIGNIFICANT WEATHER.
      TMP - AIR TEMPERATURE.    DP   - DEWPOINT TEMPERATURE.
      RH  - RELATIVE HUMIDITY.  PRES - PRESSURE.
      HX  - HEAT INDEX.         WCI  - WIND CHILL INDEX.

*  THESE STATIONS ARE NOT NWS OR FAA STATIONS AND ARE NOT UNDER
   NWS QUALITY CONTROL.

LAZ040-048-061>063-065-066-069-230600-
SOUTHEAST LOUISIANA

CITY           SKY/WX    TMP DP  RH WIND       PRES   REMARKS
N.O. AUDUBON     N/A     67  64  89 MISG        N/A
N.O. INTL ARPT CLEAR     69  65  86 N3        29.93S
N.O. LAKEFRONT CLEAR     70  65  84 NW3       29.94S
N.O. DOWNTOWN* FAIR      72  61  68 CALM      29.94S
SLIDELL        CLEAR     62  59  90 CALM      29.92F
BATON ROUGE    CLEAR     63  59  87 CALM      29.95S
BOOTHVILLE     CLEAR     69  68  96 W5        29.93S FOG
BELLE CHASSE   CLEAR     62  59  90 CALM      29.93S FOG
BOGALUSA*        N/A     61  58  89 CALM      29.95S
GALLIANO*      CLEAR     65  64  93 CALM      29.94S FOG
NEW ROADS*     FAIR      63  61  94 CALM      29.95S
GONZALES*      FAIR      62  62 100 CALM      29.94S
HAMMOND*       CLEAR     63  59  88 CALM      29.95F
HOUMA*         FOG       67  65  93 CALM      29.94S VSB 1/4
PORT FOURCHON* MOCLDY    72  68  88 W7        29.95F

$$

LAZ041-044-053-054-230600-
SOUTHWEST LOUISIANA

CITY           SKY/WX    TMP DP  RH WIND       PRES   REMARKS
LAKE CHARLES   CLEAR     65  63  93 CALM      29.94S FOG
LAFAYETTE      CLEAR     65  62  90 CALM      29.95R
PATTERSON      MOCLDY    63  63 100 CALM      29.98S VSB 1/4
SALT POINT       N/A     71  69  93 CALM      29.94S
NEW IBERIA     CLEAR     63  61  93 CALM      29.95S
CHENAULT AIRPK   N/A     66  65  99 SE3       29.96S FOG

$$

LAZ027-028-230600-
CENTRAL LOUISIANA

CITY           SKY/WX    TMP DP  RH WIND       PRES   REMARKS
FORT POLK      CLEAR     62  59  90 CALM      29.95S
ALEXANDRIA INT CLEAR     62  60  93 CALM      29.94S
ALEXANDRIA     CLEAR     60  58  92 CALM      29.95S FOG

$$

LAZ001-002-230600-
NORTHWEST LOUISIANA

CITY           SKY/WX    TMP DP  RH WIND       PRES   REMARKS
SHREVEPORT     CLEAR     65  59  81 CALM      29.94S
BARKSDALE AFB  CLEAR     62  58  87 SE2       29.94S
DTN SHREVEPORT CLEAR     63  59  87 CALM      29.95R

$$

LAZ014-016-230600-
NORTHEAST LOUISIANA

CITY           SKY/WX    TMP DP  RH WIND       PRES   REMARKS
MONROE         CLEAR     61  59  93 CALM      29.96S
TALLULAH       CLEAR     65  62  90 CALM      29.95R

$$




USA.gov is the U.S. government's official web portal to all federal, state and local government web resources and services.